Location: Pandora
(40.9481°N, 83.9611°W)
Time: 14:07:10
(UTC-04:00)

N. Korean satellite - Pass Details

Date: 21 September 2021
Orbit: 450 x 495 km, 97.3° (Epoch: 15 October)

Event Time Altitude Azimuth Distance (km) Brightness Sun altitude
Rises 06:06:53 0° 27° (NNE) 2,513 10.8 -15.0°
Reaches altitude 10° 06:09:18 10° 44° (NE) 1,640 10.2 -14.5°
Maximum altitude 06:12:01 21° 95° (E) 1,129 9.4 -14.0°
Drops below altitude 10° 06:14:45 10° 145° (SE) 1,650 9.5 -13.5°
Sets 06:17:11 0° 162° (SSE) 2,533 10.3 -13.1°
